Погода в Бертон-апон-Трент

Великобритания     52°48′32″N   1°37′59″W
темп.,
°C
ветер,
м/с
пор.,
м/с
влажн.,
%
обл.,
%
осадки,
мм/ч
давл.,
гПа
погр.,
м
9 мая, вс
вс901:00+12ююз81592100 1.0 996823
04:00+12ююз61496100 0.6 995835
07:00+11ю51398100 1.9 994890
10:00+14ююз71381100 0.1 9941115
13:00+16ююз81361100 0.1 9941579
16:00+15ююз71673100 0.3 9941921
19:00+13ююз61479100 0.6 9941294
22:00+12ю4878100 0.0 994512
10 мая, пн
пн1001:00+10ю4975100 0.0 994596
04:00+8ю4993100 0.0 994332
07:00+10ююз71270100 0.0 9951255
10:00+12ююз81272100 0.1 9961400
13:00+14ююз91368100 0.4 9971828
16:00+13ююз914735 1.1 9981649
19:00+11ююз713820 2.0 10001120
22:00+7ююз410880 0.0 1004303
11 мая, вт
вт1101:00+5ю369281 0.0 1006120
04:00+5ююв349699 0.0 100588
07:00+7юв3589100 0.0 1006153
10:00+12юв6875100 0.1 10061100
13:00+14ююв8106659 0.9 10041675
16:00+14ююв91462100 0.3 10031806
19:00+11ююв8138436 0.9 10041084
22:00+9ю5109375 0.7 1005482
12 мая, ср
ср1201:00+6ю410945 0.8 1006350
04:00+5ююв369716 0.0 1006114
07:00+7ююв379599 0.0 1007244
10:00+10ю578591 0.1 1007828
13:00+11ююз467496 0.3 1007917
16:00+12ю357690 0.3 1007482
19:00+12ю358035 1.7 1007268
22:00+8ю22903 0.4 100811
13 мая, чт
чт1301:00+6ю11925 0.4 100810
04:00+5с019318 0.0 100810
07:00+7ссз119191 0.0 100965
10:00+12ссв227735 0.1 1009694
13:00+14св346635 1.4 10081296
16:00+14св347397 1.6 10081066
19:00+12св368891 3.6 1009442
22:00+9св6129745 1.3 1011397